Weather History for Montreal Mirabel, QC

Change the Weather History Date:

Thursday, October 4, 2012

  Actual Average Record
Temperature  
Mean Temperature 56 °F -  
Max Temperature 60 °F 57 °F 78 °F (2005)
Min Temperature 51 °F 38 °F 28 °F (1996)
Degree Days  
Heating Degree Days 10    
Growing Degree Days 6 (Base 50)    
Moisture  
Dew Point 54 °F    
Average Humidity 96    
Maximum Humidity 100    
Minimum Humidity 77    
Precipitation  
Precipitation 0.00 in - - ()
Sea Level Pressure  
Sea Level Pressure 30.09 in    
Wind  
Wind Speed 4 mph ()    
Max Wind Speed 7 mph    
Max Gust Speed -    
Visibility 3.8 miles    
Events Fog    
Averages and records for this station are not official NWS values.
T = Trace of Precipitation, MM = Missing Value Source: Averaged Metar Reports

Daily Weather History Graph

Daily Weather History Graph

Search for Another Location

Airport:

Trip Planner

Search our weather history database for the weather conditions in past years. The results will help you decide how hot, cold, wet, or windy it might be!

Date:

Astronomy

Oct. 04, 2012 Rise Set
Actual Time 6:58 AM EDT 6:29 PM EDT
Civil Twilight 6:29 AM EDT 6:59 PM EDT
Nautical Twilight 5:54 AM EDT 7:33 PM EDT
Astronomical Twilight 5:19 AM EDT 8:08 PM EDT
Moon 8:49 PM EDT (10/4) 11:27 AM EDT (10/4)
Length of Visible Light 12h 30m
Length of Day
11h 30m
Waning Gibbous, 82% of the Moon is Illuminated
Oct 4
Waning Gibbous
Oct 8
Last Quarter
Oct 15
New
Oct 21
First Quarter
Oct 29
Full

Hourly Weather History & Observations

Time (EDT) Temp. Dew Point Humidity Pressure Visibility Wind Dir Wind Speed Gust Speed Precip Events Conditions
12:00 AM 60.8 °F 55.4 °F 82% 30.14 in 15.0 mi ENE 4.6 mph - N/A   Overcast
1:00 AM 59.0 °F 53.6 °F 82% - 15.0 mi NE 4.6 mph - N/A   Overcast
2:00 AM 59.0 °F 51.8 °F 77% 30.15 in 15.0 mi NE 5.8 mph - N/A   Overcast
2:12 AM 57.2 °F 51.8 °F 82% 30.15 in 6.0 mi NNE 2.3 mph - N/A   Light Drizzle
3:00 AM 53.6 °F 53.6 °F 100% - 6.0 mi ENE 4.6 mph - N/A   Light Drizzle
4:00 AM 53.6 °F 51.8 °F 94% 30.15 in 6.0 mi NE 3.5 mph - N/A   Light Drizzle
5:00 AM 53.6 °F 51.8 °F 94% 30.14 in 10.0 mi NE 6.9 mph - N/A   Light Drizzle
6:00 AM 51.8 °F 50.0 °F 94% 30.15 in 10.0 mi NE 4.6 mph - N/A   Light Drizzle
7:00 AM 51.8 °F 51.8 °F 100% 30.15 in 3.0 mi NE 4.6 mph - N/A   Light Drizzle
7:28 AM 51.8 °F 51.8 °F 100% 30.14 in 2.0 mi ENE 4.6 mph - N/A   Light Drizzle
8:00 AM 51.8 °F 51.8 °F 100% 30.14 in 2.0 mi ENE 4.6 mph - N/A   Light Drizzle
9:00 AM 53.6 °F 51.8 °F 94% 30.14 in 1.2 mi ENE 5.8 mph - N/A   Light Drizzle
9:38 AM 53.6 °F 53.6 °F 100% 30.13 in 1.2 mi ENE 4.6 mph - N/A   Light Drizzle
10:00 AM 53.6 °F 53.6 °F 100% 30.12 in 1.2 mi ENE 5.8 mph - N/A   Light Drizzle
11:00 AM 53.6 °F 53.6 °F 100% 30.12 in 1.2 mi NE 4.6 mph - N/A   Light Drizzle
12:00 PM 53.6 °F 53.6 °F 100% 30.11 in 1.2 mi ENE 4.6 mph - N/A   Light Drizzle
1:00 PM 55.4 °F 53.6 °F 94% 30.09 in 1.0 mi East 5.8 mph - N/A   Light Drizzle
2:00 PM 55.4 °F 55.4 °F 100% 30.08 in 1.0 mi NNE 3.5 mph - N/A   Light Drizzle
3:00 PM 55.4 °F 55.4 °F 100% 30.06 in 1.0 mi ENE 3.5 mph - N/A   Light Drizzle
4:00 PM 57.2 °F 57.2 °F 100% 30.05 in 1.0 mi East 3.5 mph - N/A   Light Drizzle
5:00 PM 57.2 °F 57.2 °F 100% 30.03 in 1.5 mi Calm Calm - N/A   Overcast
6:00 PM 59.0 °F 57.2 °F 94% 30.01 in 2.0 mi Calm Calm - N/A   Overcast
7:00 PM 57.2 °F 57.2 °F 100% 30.01 in 1.5 mi NE 2.3 mph - N/A   Overcast
7:50 PM 57.2 °F 57.2 °F 100% 30.00 in 0.5 mi NE 2.3 mph - N/A Fog Fog
8:00 PM 57.2 °F 57.2 °F 100% 30.01 in 0.5 mi NE 3.5 mph - N/A Fog Fog
9:00 PM 57.2 °F 57.2 °F 100% 30.01 in 0.2 mi NE 3.5 mph - N/A Fog Fog
10:00 PM 55.4 °F 55.4 °F 100% 29.99 in 0.2 mi ENE 3.5 mph - N/A Fog Fog
11:00 PM 55.4 °F 55.4 °F 100% 29.98 in 0.2 mi North 3.5 mph - N/A Fog Fog